This demonstration page uses our WeatherBlox Daily Observations layout. Learn more.

Hourly Observations for November 21, 2019

Temp ( °F °C ) Dew Point ( °F °C ) Humidity (%) Winds ( mph kmh ) Pressure ( in mb ) Visibility ( mi km ) Precip ( " mm )
12:15 am 00:15 Clear 39 4 39 4 100 100 SSE 8 13 30.24 1024 7 11.265408 N/A
12:35 am 00:35 Clear 39 4 39 4 100 100 S 9 15 30.24 1024 10 16.09344 N/A
12:55 am 00:55 Clear 39 4 39 4 100 100 S 9 15 30.24 1024 10 16.09344 N/A
1:16 am 01:16 Clear 39 4 39 4 100 100 SSE 9 15 30.21 1023 10 16.09344 N/A
1:35 am 01:35 Clear 39 4 39 4 100 100 S 9 15 30.21 1023 10 16.09344 N/A
1:56 am 01:56 Clear 39 4 39 4 100 100 S 9 15 30.21 1023 10 16.09344 N/A
2:16 am 02:16 Clear 39 4 39 4 100 100 S 8 13 30.21 1023 10 16.09344 N/A
2:35 am 02:35 Clear 39 4 39 4 100 100 S 10 17 30.21 1023 10 16.09344 N/A
2:56 am 02:56 Clear 39 4 39 4 100 100 SSE 10 17 30.21 1023 10 16.09344 N/A
3:15 am 03:15 Clear 39 4 39 4 100 100 S 8 13 30.15 1021 10 16.09344 N/A
3:35 am 03:35 Clear 39 4 39 4 100 100 S 9 15 30.15 1021 10 16.09344 N/A
3:55 am 03:55 Clear 39 4 39 4 100 100 S 9 15 30.15 1021 10 16.09344 N/A
4:15 am 04:15 Clear 39 4 39 4 100 100 S 10 17 30.15 1021 10 16.09344 N/A
4:35 am 04:35 Clear 41 5 41 5 100 100 S 10 17 30.12 1020 10 16.09344 N/A
4:56 am 04:56 Clear 41 5 41 5 100 100 S 8 13 30.12 1020 10 16.09344 N/A
5:15 am 05:15 Clear 41 5 41 5 100 100 S 10 17 30.12 1020 10 16.09344 N/A
5:36 am 05:36 Clear 41 5 41 5 100 100 SSE 12 19 30.12 1020 10 16.09344 N/A
5:55 am 05:55 Clear 41 5 41 5 100 100 S 12 19 30.09 1019 10 16.09344 N/A
6:16 am 06:16 Clear 41 5 41 5 100 100 S 10 17 30.09 1019 10 16.09344 N/A
6:36 am 06:36 Clear 43 6 43 6 100 100 SSE 13 20 30.06 1018 10 16.09344 N/A
6:55 am 06:55 Clear 43 6 43 6 100 100 S 10 17 30.06 1018 10 16.09344 N/A
7:15 am 07:15 Clear 43 6 43 6 100 100 S 9 15 30.06 1018 10 16.09344 N/A
7:36 am 07:36 Partly Cloudy 43 6 43 6 100 100 S 12 19 30.06 1018 10 16.09344 N/A
7:55 am 07:55 Partly Cloudy 43 6 43 6 100 100 S 13 20 30.06 1018 10 16.09344 N/A
8:16 am 08:16 Partly Cloudy 43 6 43 6 100 100 S 12 19 30.06 1018 10 16.09344 N/A
8:36 am 08:36 Sunny 43 6 43 6 100 100 S 10 17 30.06 1018 10 16.09344 N/A
8:56 am 08:56 Partly Cloudy 45 7 43 6 93 93 S 12 19 30.06 1018 10 16.09344 N/A
9:15 am 09:15 Partly Cloudy 45 7 43 6 93 93 S 10 17 30.06 1018 10 16.09344 N/A
9:35 am 09:35 Sunny 45 7 43 6 93 93 S 13 20 30.03 1017 10 16.09344 N/A
9:55 am 09:55 Mostly Cloudy 45 7 43 6 93 93 S 14 22 30.03 1017 10 16.09344 N/A
10:15 am 10:15 Mostly Cloudy 45 7 43 6 93 93 S 10 17 30 1016 10 16.09344 N/A
10:35 am 10:35 Partly Cloudy 46 8 45 7 93 93 S 12 19 30.03 1017 10 16.09344 N/A
10:55 am 10:55 Partly Cloudy 46 8 45 7 93 93 S 16 26 30 1016 10 16.09344 N/A
11:16 am 11:16 Mostly Cloudy 46 8 45 7 93 93 S 14 22 30 1016 10 16.09344 N/A
11:36 am 11:36 Partly Cloudy 48 9 45 7 87 87 S 13 20 30 1016 10 16.09344 N/A
11:55 am 11:55 Mostly Cloudy 50 10 46 8 88 88 SSW 14 22 30 1016 10 16.09344 N/A
12:16 pm 12:16 Mostly Cloudy 48 9 48 9 100 100 SSW 13 20 30 1016 2.5 4.02336 N/A
12:36 pm 12:36 Cloudy 48 9 48 9 100 100 SSW 15 24 29.97 1015 7 11.265408 N/A
12:56 pm 12:56 Cloudy 48 9 48 9 100 100 SSW 15 24 29.94 1014 2.5 4.02336 N/A
1:15 pm 13:15 Cloudy 48 9 48 9 100 100 SSW 16 26 29.94 1014 2.5 4.02336 N/A
1:36 pm 13:36 Cloudy 48 9 48 9 100 100 SSW 14 22 29.94 1014 7 11.265408 N/A
1:56 pm 13:56 Cloudy 48 9 48 9 100 100 SSW 16 26 29.91 1013 5 8.04672 N/A
2:15 pm 14:15 Cloudy 48 9 48 9 100 100 SSW 15 24 29.91 1013 7 11.265408 N/A
2:35 pm 14:35 Cloudy 48 9 48 9 100 100 SSW 17 28 29.91 1013 5 8.04672 N/A
2:56 pm 14:56 Cloudy 50 10 50 10 100 100 SSW 17 28 29.91 1013 5 8.04672 N/A
3:16 pm 15:16 Cloudy 50 10 50 10 100 100 SSW 17 28 29.91 1013 4 6.437376 N/A
3:35 pm 15:35 Cloudy 50 10 50 10 100 100 SSW 14 22 29.91 1013 4 6.437376 N/A
3:55 pm 15:55 Cloudy 50 10 50 10 100 100 SSW 13 20 29.91 1013 5 8.04672 N/A
4:15 pm 16:15 Cloudy 50 10 50 10 100 100 SSW 10 17 29.91 1013 5 8.04672 N/A
4:35 pm 16:35 Cloudy 50 10 50 10 100 100 SSW 12 19 29.91 1013 7 11.265408 N/A
4:56 pm 16:56 Cloudy 50 10 50 10 100 100 SW 17 28 29.91 1013 5 8.04672 N/A
5:15 pm 17:15 Cloudy 50 10 50 10 100 100 SW 15 24 29.91 1013 2.5 4.02336 N/A
5:35 pm 17:35 Cloudy 52 11 52 11 100 100 SW 14 22 29.91 1013 4 6.437376 N/A
5:56 pm 17:56 Cloudy 52 11 52 11 100 100 SW 13 20 29.91 1013 2.5 4.02336 N/A
6:16 pm 18:16 Cloudy 52 11 52 11 100 100 SW 15 24 29.91 1013 3 4.828032 N/A
6:36 pm 18:36 Cloudy 52 11 52 11 100 100 SW 14 22 29.91 1013 5 8.04672 N/A
6:56 pm 18:56 Cloudy 52 11 52 11 100 100 SW 12 19 29.94 1014 5 8.04672 N/A
7:16 pm 19:16 Cloudy 52 11 52 11 100 100 SW 12 19 29.94 1014 4 6.437376 N/A
7:36 pm 19:36 Cloudy 52 11 52 11 100 100 SW 10 17 29.94 1014 4 6.437376 N/A
7:56 pm 19:56 Cloudy 52 11 52 11 100 100 SW 12 19 29.94 1014 4 6.437376 N/A
8:16 pm 20:16 Cloudy 52 11 52 11 100 100 SW 12 19 29.94 1014 5 8.04672 N/A
8:36 pm 20:36 Cloudy 52 11 52 11 100 100 WSW 9 15 29.94 1014 3 4.828032 N/A
8:55 pm 20:55 Cloudy 52 11 52 11 100 100 WSW 12 19 29.94 1014 2.5 4.02336 N/A
9:15 pm 21:15 Cloudy 52 11 52 11 100 100 WSW 12 19 29.94 1014 2.5 4.02336 N/A
9:35 pm 21:35 Cloudy 50 10 50 10 100 100 W 13 20 29.97 1015 2.5 4.02336 N/A
9:56 pm 21:56 Cloudy 48 9 48 9 100 100 WNW 13 20 30 1016 3 4.828032 N/A
10:15 pm 22:15 Cloudy 48 9 48 9 100 100 WNW 9 15 30 1016 2 3.218688 N/A
10:36 pm 22:36 Cloudy 46 8 46 8 100 100 WNW 10 17 30 1016 2 3.218688 N/A
10:55 pm 22:55 Cloudy 46 8 46 8 100 100 WNW 12 19 30 1016 2.5 4.02336 N/A
11:16 pm 23:16 Cloudy 45 7 45 7 100 100 WNW 13 20 30 1016 2.5 4.02336 N/A
11:35 pm 23:35 Cloudy 45 7 45 7 100 100 WNW 8 13 30 1016 2 3.218688 N/A
11:55 pm 23:55 Cloudy 43 6 43 6 100 100 WNW 14 22 30 1016 2 3.218688 N/A

Powered by AerisWeather